www.pogodaiklimat.ru

Погода и климат >> Архив погоды >> Иран >> Аэропорт Конарак


ПОГОДА в Аэропорту Конарак

  • Прогноз погоды в Аэропорту Конарак
  • Монитор погоды в Аэропорту Конарак

АРХИВ ПОГОДЫ в Аэропорту Конарак

Время (UTC), дата Ветер
(напр.,м/с)
 
Видим.   Явления Облачность Т
(С)
Тd
(С)
f
(%)
Тe
(С)
Тes
(С)
Комфортность P
(гПа)
Po
(гПа)
Тmin
(С)
Tmax
(С)
R
(мм)
R24
(мм)
S
(см)
00 15.09 Ю 2 8000 м мгла 8/8 600 м
[St]
+29.4 +24.9 77 +42 +42 опасность
перегрева
1006.7 1005.8
03 15.09 Ю 2 10 км 10/5 900 м
[Sc As op]
+29.6 1008.4 1007.5 +29.2
06 15.09 Ю 2 8000 м мгла 10/5 900 м
[Sc As op]
+30.4 +24.6 71 +43 +44 опасность
перегрева
1009.7 1008.8
09 15.09 Ю 3 8000 м мгла 10/4 900 м
[Sc As op]
+32.1 1008.1 1007.2
12 15.09 Ю 3 8000 м мгла 6/3 750 м
[Cu hum As trans]
+31.6 +25.3 69 +46 +48 опасность
перегрева
1006.3 1005.4
15 15.09 Ю 4 7000 м мгла 3/3 600 м
[St Ci fib]
+30.0 1006.9 1006.0 +32.5
18 15.09 ЮЗ 3 7000 м мгла 3/3 600 м
[St]
+29.7 +25.3 77 +43 +43 опасность
перегрева
1008.2 1007.3 0.6
21 15.09 ЮЗ 2 6000 м мгла 3/3 600 м
[St]
+29.1 +25.2 80 +42 +42 опасность
перегрева
1007.3 1006.4
00 16.09 ЮЗ 2 6000 м мгла 4/4 600 м
[St]
+29.2 +24.7 77 +42 +42 опасность
перегрева
1007.1 1006.2
03 16.09 ЮЗ 3 6000 м мгла 8/8 600 м
[St]
+29.5 1008.4 1007.5 +28.8
06 16.09 ЮЗ 3 8000 м мгла 4/4 600 м
[St]
+31.6 +25.8 71 +47 +54 опасность
перегрева
1009.0 1008.1
09 16.09 ЮЗ 3 8000 м мгла 5/3 750 м
[Cu hum Ci sp]
+32.5 1007.1 1006.2 666
12 16.09 ЮЗ 4 8000 м мгла 8/1 750 м
[Sc diur, vesp Cs]
+31.2 +25.8 73 +46 +49 опасность
перегрева
1004.8 1003.9
15 16.09 ЮЗ 4 7000 м мгла 4/0
[Cs]
+29.9 1004.7 1003.8 +32.8 666
18 16.09 ЮЗ 2 7000 м дымка 4/0
[Ci sp]
+29.7 +25.9 80 +44 +44 опасность
перегрева
1005.6 1004.7
21 16.09 З 2 7000 м дымка 4/0
[Ci sp]
+29.5 +25.9 81 +44 +44 опасность
перегрева
1004.7 1003.8
00 17.09 штиль 0 7000 м дымка ясно +29.4 +25.6 80 +43 +43 опасность
перегрева
1004.4 1003.5
03 17.09 штиль 0 7000 м дымка 5/3 600 м
[St Ci sp]
+30.3 1006.1 1005.2 +28.6
06 17.09 Ю 2 8000 м мгла 4/0
[Ci fib]
+32.5 +27.3 74 +51 +64 опасность
перегрева
1007.1 1006.2
09 17.09 ЮЗ 3 8000 м мгла 5/0
[Ci fib]
+33.0 -0.1 12 +30 +42 жарко 1005.0 1004.1
12 17.09 ЮЗ 3 10 км 4/0
[Ci sp]
+32.6 -0.1 12 +29 +33 жарко 1002.9 1002.0
15 17.09 ЮЗ 4 8000 м дымка 4/3 600 м
[St Ci fib]
+30.9 -0.2 13 +28 +28 жарко 1003.5 1002.6 +33.2 666
18 17.09 СЗ 2 6000 м дымка 1/1 600 м
[St]
+30.2 +27.2 84 +48 +48 опасность
перегрева
1004.9 1004.0
21 17.09 ЮЗ 3 6000 м дымка ясно +29.7 +27.2 86 +47 +47 опасность
перегрева
1004.9 1004.0
00 18.09 штиль 0 5000 м дымка 1/1 600 м
[St]
+29.5 +27.3 88 +47 +47 опасность
перегрева
1004.6 1003.7
03 18.09 штиль 0 5000 м дымка 4/4 600 м
[St]
+29.7 -0.1 15 +27 +28 жарко 1006.8 1005.9 +28.9 666
06 18.09 Ю 2 6000 м мгла 3/3 600 м
[St]
+32.0 +26.5 73 +49 +59 опасность
перегрева
1008.4 1007.5
09 18.09 ЮВ 3 8000 м мгла 3/3 600 м
[St]
+32.6 1006.9 1006.0 666
12 18.09 Ю 2 8000 м мгла ясно +32.2 1005.9 1005.0
15 18.09 Ю 3 8000 м дымка ясно +30.2 1007.1 1006.2 +33.1 666
18 18.09 штиль 0 7000 м дымка 1/1 600 м
[St]
+29.6 +26.8 85 +46 +46 опасность
перегрева
1008.5 1007.6
21 18.09 штиль 0 7000 м дымка 1/1 600 м
[St]
+28.6 +25.8 85 +43 +43 опасность
перегрева
1007.9 1007.0
00 19.09 штиль 0 6000 м дымка 3/3 600 м
[St]
+27.8 +25.7 88 +41 +41 опасность
перегрева
1007.8 1006.9
03 19.09 ЮВ 4 8000 м мгла 1/1 600 м
[St]
+29.2 1009.5 1008.6 +27.0 666
06 19.09 ЮВ 3 8000 м мгла 1/1 750 м
[Cu hum]
+31.6 +25.3 69 +46 +56 опасность
перегрева
1010.7 1009.8
09 19.09 Ю 5 8000 м мгла 1/1 750 м
[Cu hum]
+32.3 1008.9 1008.0
12 19.09 Ю 5 8000 м мгла 1/1 600 м
[St]
+31.3 +25.7 72 +46 +48 опасность
перегрева
1007.4 1006.5
15 19.09 ЮЗ 3 7000 м мгла 3/3 600 м
[St]
+29.6 1007.7 1006.8 +32.7 666
18 19.09 З 2 7000 м дымка 3/3 600 м
[St]
+29.0 +25.5 81 +43 +43 опасность
перегрева
1008.3 1007.4
21 19.09 штиль 0 6000 м дымка ясно +28.4 +25.4 84 +42 +42 опасность
перегрева
1007.7 1006.8
00 20.09 Ю 2 6000 м дымка ясно +28.5 +25.1 82 +41 +41 опасность
перегрева
1007.1 1006.2
03 20.09 штиль 0 6000 м мгла 3/3 600 м
[St]
+29.6 1008.4 1007.5 +28.4
06 20.09 Ю 3 10 км ясно +31.0 1009.3 1008.4
09 20.09 ЮЗ 3 10 км ясно 1006.9 1006.0
12 20.09 Ю 4 10 км ясно +32.4 1005.2 1004.3
15 20.09 Ю 3 8000 м мгла ясно +30.4 1005.7 1004.8 +32.7 666
18 20.09 Ю 2 7000 м мгла ясно +29.7 +24.4 73 +42 +42 опасность
перегрева
1006.8 1005.9
21 20.09 ЮВ 2 7000 м дымка ясно +11.9 +26.0 81 +44 +44 опасность
перегрева
1005.6 1004.7
00 21.09 штиль 0 7000 м дымка ясно +28.0 +25.2 85 +41 +41 опасность
перегрева
1005.0 1004.1
03 21.09 С 2 5000 м дымка 3/3 600 м
[St]
+28.3 1006.6 1005.7 +27.1 666
06 21.09 ЮВ 4 10 км ясно +31.2 1007.2 1006.3
09 21.09 ЮВ 4 10 км ясно +22.8 +21.4 92 +30 +41 очень
душно
1005.5 1004.6 666
12 21.09 Ю 5 10 км ясно +31.6 1003.9 1003.0
15 21.09 ЮВ 3 10 км ясно 1004.5 1003.6 +32.8
18 21.09 штиль 0 8000 м дымка ясно +29.4 +26.8 86 +46 +46 опасность
перегрева
1005.6 1004.7
21 21.09 ЮВ 2 8000 м дымка 3/3 600 м
[St]
+29.5 +26.6 84 +45 +45 опасность
перегрева
1005.5 1004.6

 

Местоположение метеостанции Аэропорт Конарак (Иран): широта 25.28 долгота 60.62 высота над уровнем моря 8 м.

В архиве по умолчанию представлена погода в Аэропорту Конарак за последнюю неделю. Архивные данные за месяц целиком и за предыдущие месяцы, начиная с января 2011 года, Вы можете получить, выбрав интересующий диапазон дат из раскрывающегося списка и нажав кнопку "Ввод!".


*Определитесь, кто Вы:
робот инопланетянин человек

Внимание! Время в таблицах - всемирное. Для получения местного времени необходимо прибавить поправку, которая равна 3.5 ч.

Смотрите также архив погоды в соседних городах и на ближайших метеорологических станциях:

Погода в Дживани (Пакистан) (121 км)
Погода в Гавадаре (Пакистан) (173 км)
Погода в Ираншехре (Иран) (214 км)
Погода в Порту Sultan Qaboos (Оман) (278 км)
Погода в Сараване (Иран) (285 км)
Погода в Пасни (Пакистан) (288 км)
Погода в Джаске (Иран) (289 км)
Погода в Аль Амарат (Оман) (294 км)
Погода в Сибе (Оман) (303 км)
Погода в Калхате (Оман) (318 км)

Пояснения к столбцам:

Ветер - указаны скорость ветра в м/с - средняя за 10 мин, порывы в срок и между сроками (в фигурных скобках) и направление, откуда дует ветер: С - северный, СВ - северо-восточный, В - восточный, ЮВ - юго-восточный, Ю - южный, ЮЗ - юго-западный, З - западный, СЗ - северо-западный.
Видимость - горизонтальная дальность видимости в метрах или километрах. При видимости от 1 до 10 км при отсутствии осадков обычно наблюдается дымка, при ухудшении видимости до 1 км и менее - туман. В сухую погоду видимость может ухудшаться дымом, пылью или мглою.
Явления - указаны атмосферные явления, наблюдавшиеся в срок или в последний час перед сроком; фигурными скобками обозначены явления, наблюдавшиеся между сроками (за 1-3 часа до срока); квадратными скобками обозначены град или гололедные отложения с указанием их диаметра в мм.
Облачность - указаны через наклонную черту общая и нижняя облачность в баллах и высота нижней границы облаков в метрах; квадратными скобками обозначены формы облаков: Ci - перистые, Cs - перисто-слоистые, Cc - перисто-кучевые, Ac - высококучевые, As - высокослоистые, Sc - слоисто-кучевые, Ns - слоисто-дождевые, Cu - кучевые, Cb - кучево-дождевые. Подробнее классификацию облаков см. в Атласе облаков (PDF).
T - Температура воздуха - температура, измеренная на высоте 2 м над землей.
Td - Температура точки росы - температура, при понижении до которой содержащийся в воздухе водяной пар достигнет насыщения.
f - Относительная влажность воздуха - влажноcть воздуха, измеренная на высоте 2 м над землей.
Te - Эффективная температура - температура, которую ощущает одетый по сезону человек в тени. Характеристика душности погоды. При расчете учитывается влияние влажности воздуха и скорости ветра на теплоощущения человека.
Tes - Эффективная температура на солнце - температура, которую ощущает человек, с поправкой на солнечный нагрев. Характеристика знойности погоды. Зависит от высоты солнца над горизонтом, облачности и скорости ветра. Ночью, в пасмурную погоду, а также при ветре 12 м/с и более поправка равна нулю.
P - Атмосферное давление - приведенное к уровню моря атмосферное давление.
Po - Атмосферное давление - измеренное на уровне метеостанции атмосферное давление.
Tmin - Минимальная температура - минимум температуры воздуха на высоте 2 м над землей.
Tmax - Максимальная температура - максимум температуры воздуха на высоте 2 м над землей.
R - Количество осадков - Количество выпавших осадков за период времени, мм. При наведении курсора мыши на число - период времени, за который выпало указанное количество осадков.
R24 - Количество осадков - Количество выпавших осадков за 24 часа, мм.
S - Снежный покров - Высота снежного покрова, см. При наведении курсора мыши на число - состояние снежного покрова и степень покрытия местности в баллах.